To NAV CANADA Home Page Login to a new session Search on AWWS site Feedback and Comments Disclaimer Vers la page française équivalente Tips FAQ What's new on the site To the Forecasts and Observations / NOTAM section To "File a Flight Plan" website Publications and other links Update of the User's profile FIC Telephone Numbers My Weather Data Folder Route Weather Data Regional Weather Data Local Weather Data To the Forecasts and Observations / NOTAM section
Request Generated 07/04/2015 at 06:57:51 UTC . Weather information available at that time is displayed.

METAR/TAF

DEASE LAKE/BC    (show WxCam)

METAR CYDL 040600Z AUTO VRB04KT 9SM OVC075 13/06 A3015 RMK SLP210
DENSITY ALT 2700FT=
METAR CYDL 040500Z AUTO 33005KT 260V020 9SM OVC080 14/05 A3012 RMK
SLP202 DENSITY ALT 2900FT=
METAR CYDL 040400Z AUTO 31005KT 240V030 9SM BKN095 OVC110 15/05 A3010
RMK SLP196 DENSITY ALT 3000FT=

*** REMARK        : Forecast period has ended; this was the last TAF issued
*** REMARQUE : La période de prévision est échue; ceci était le dernier TAF qui a été émis
TAF CYDL 032338Z 0400/0402 23012G22KT P6SM BKN050
RMK FCST BASED ON AUTO OBS. NXT FCST WILL BE ISSUED AT 041545Z=
Your time UTC time
Weather data provided by Environment Canada and NAV CANADA